Location: STAR School
(35.3054°N, 111.2976°W)
Time: 09:43:06
(UTC-07:00)

Vanguard 1 - Pass Details

Date: 27 October 2019
Orbit: 652 x 3831 km, 34.2° (Epoch: 11 November)

Event Time Altitude Azimuth Distance (km) Brightness Sun altitude
Rises 22:38:03 0° 281° (WNW) 4,699 13.9 -59.7°
Reaches altitude 10° 22:40:43 10° 276° (W) 4,036 13.4 -60.1°
Enters shadow 22:42:29 18° 271° (W) 3,659 13.1 -60.4°
